User: anonymous   Login
Location: Newark
(43.0000°N, 1.6781°W)
Time: 09:54:25
(UTC+00:00)
Language:

PRISM - Orbit

View from above orbital plane
View from above orbital plane
View from above satellite
View from above satellite

Ground track
Ground track

The orbit data is extracted from the following two-line orbital elements,

1 33493U 09002B   22330.71963309  .00004850  00000-0  37855-3 0  9999
2 33493  98.2513 326.8795 0016991  12.4683 347.6957 15.01555697753316
Epoch (UTC): 26 November 2022 17:16:16
Eccentricity: 0.0016991
inclination: 98.2513°
perigee height: 550 km
apogee height: 574 km
right ascension of ascending node: 326.8795°
argument of perigee: 12.4683°
revolutions per day: 15.01555697
mean anomaly at epoch: 347.6957°
orbit number at epoch: 75331

The dashed part of the orbit path shows where the satellite is in the earth's shadow,  

DLR